📊 Raw Sensor Data

Showing records 36176 to 36200 of 84,891 total

ID Distance (ft) Battery V Battery A Int Temp (°F) Int Humid (%) Ext Temp (°F) Solar V RSSI SNR Time Stamp
48728 15.3 3.92 0 114 51 104 5.10 -71 7 08/09/2025 06:00 PM
48727 15.4 3.92 0 116 50 106 5.10 -70 8 08/09/2025 05:45 PM
48726 15.4 3.99 0 117 49 106 5.10 -71 7 08/09/2025 05:30 PM
48725 15.4 3.92 0 118 48 108 5.20 -70 8 08/09/2025 05:15 PM
48724 15.4 3.92 0 118 47 108 5.20 -71 8 08/09/2025 05:00 PM
48723 15.4 3.92 0 118 47 106 5.10 -70 8 08/09/2025 04:45 PM
48722 15.4 3.92 0 118 46 109 5.20 -71 9 08/09/2025 04:30 PM
48721 15.4 3.92 0 117 46 108 5.10 -71 8 08/09/2025 04:15 PM
48720 15.4 4.11 0 117 45 108 5.20 -70 8 08/09/2025 04:00 PM
48719 15.4 3.92 0 117 45 105 5.20 -70 9 08/09/2025 03:45 PM
48718 15.4 4.10 0 116 44 106 5.20 -69 7 08/09/2025 03:30 PM
48717 15.3 3.92 0 115 44 105 5.20 -71 8 08/09/2025 03:15 PM
48716 15.3 3.93 0 115 43 106 5.20 -71 8 08/09/2025 03:00 PM
48715 15.3 3.92 0 114 43 104 5.20 -72 8 08/09/2025 02:45 PM
48714 15.3 3.92 0 113 42 104 5.20 -69 8 08/09/2025 02:30 PM
48713 15.3 3.92 0 111 42 102 5.20 -69 8 08/09/2025 02:15 PM
48712 15.3 4.11 0 109 42 100 5.20 -71 8 08/09/2025 02:00 PM
48711 15.3 3.92 0 109 41 99 5.20 -69 8 08/09/2025 01:45 PM
48710 15.4 3.92 0 106 42 99 5.20 -70 8 08/09/2025 01:30 PM
48709 15.3 3.92 0 104 43 97 5.20 -71 7 08/09/2025 01:15 PM
48708 15.3 3.92 0 103 42 97 5.20 -71 8 08/09/2025 01:00 PM
48707 15.3 3.92 0 101 42 95 5.10 -69 7 08/09/2025 12:45 PM
48706 15.4 3.92 0 100 43 96 5.10 -70 8 08/09/2025 12:30 PM
48705 15.4 3.92 0 98 42 95 5.20 -70 7 08/09/2025 12:15 PM
48704 15.4 3.92 0 97 42 97 5.10 -71 8 08/09/2025 12:00 PM